Temp
40 37 35 35 36 39 40 40 40 39 38 37 35 33 33 31 32 37 38 39 41 38 36 37 35 34 32 31 34 35 35 34 30 30 31 29 31 33 33 33 33 32 32 32 31 31 29 29 28 27 26 26 25 25 25 25 24 24 24 23 23 23 23 23 23 24 24 24 24 23 24 24 23 23 23 23 22 22 21 21 20 20 20 20 20 20
40 35 35 38 39 40 40 41 41 40 40 38 36 33 33 32 33 39 40 39 41 38 36 37 34 34 33 31 33 34 34 34 30 29 30 29 30 33 33 33 33 32 32 31 30 30 29 28 28 27 26 26 25 25 25 25 24 24 24 23 23 23 23 23 23 23 23 23 24 24 24 24 24 24 23 23 22 22 21 21 20 20 20 20 20 20
36 34 37 40 40 41 41 41 40 40 41 39 37 33 30 33 36 38 41 41 41 38 36 36 34 33 33 32 34 35 34 34 32 30 30 28 29 32 33 33 33 32 32 29 28 28 28 27 27 27 26 26 25 25 25 25 24 23 23 23 23 23 23 23 23 23 23 23 23 23 23 23 23 23 23 23 22 22 22 21 20 20 19 19 19 19
30 34 40 41 41 41 41 40 40 39 39 39 37 31 29 35 34 31 37 41 41 39 37 37 35 34 35 34 34 35 34 34 32 30 29 28 28 31 33 33 33 33 30 25 23 26 27 27 27 26 26 25 25 25 25 24 24 23 23 23 23 23 23 23 23 23 23 23 23 23 23 23 23 23 23 23 23 23 22 21 20 19 19 19 19 19
33 38 41 41 41 41 39 40 41 37 35 37 38 33 31 36 35 33 37 41 41 39 39 37 31 31 35 35 35 36 34 33 32 30 29 29 29 30 33 33 33 32 27 21 21 24 25 25 26 26 25 25 25 26 25 24 24 23 22 22 22 23 22 22 22 22 22 23 23 23 23 23 23 23 23 23 23 23 22 21 21 20 19 19 19 19
37 40 41 41 40 40 40 40 40 37 33 33 38 38 37 38 38 38 39 38 33 30 36 36 25 25 33 35 36 36 32 30 30 30 30 30 29 31 32 33 33 29 22 21 23 23 23 24 25 25 25 26 25 25 24 24 24 23 22 22 22 22 22 22 22 22 22 22 23 23 23 23 23 22 22 22 22 22 22 21 21 20 20 20 19 19
39 40 41 40 40 40 41 39 40 40 33 29 36 41 40 40 39 37 38 33 26 26 35 37 27 23 28 31 34 33 29 28 30 31 31 30 30 30 32 33 30 24 21 22 23 22 22 23 24 25 25 25 25 24 23 23 23 23 22 22 22 22 22 22 22 22 22 22 23 23 24 23 23 22 22 22 22 21 22 21 21 20 20 20 20 20
39 40 39 40 40 39 38 37 40 41 33 29 38 41 40 40 38 38 37 32 30 31 34 36 31 24 23 27 32 32 29 29 31 31 31 30 30 30 32 32 25 21 22 23 22 22 22 22 23 24 24 24 23 22 23 23 23 22 22 22 22 21 22 22 22 22 22 22 23 23 23 23 22 22 22 22 22 21 21 21 20 20 20 20 20 20
41 39 39 40 39 37 37 38 41 41 36 35 41 41 40 40 39 39 37 31 33 31 26 30 31 24 22 26 32 34 31 30 32 33 32 31 30 30 32 30 22 21 23 22 22 22 22 22 22 23 23 22 22 22 22 22 22 22 21 21 21 21 21 22 22 22 22 22 22 22 22 22 22 22 22 22 21 21 21 21 20 20 20 20 20 20
40 40 40 40 38 38 39 41 41 40 39 40 42 42 40 40 40 40 37 31 30 27 23 26 29 25 23 25 30 33 30 30 32 32 32 32 31 31 33 29 22 22 22 21 22 22 22 22 22 22 22 22 21 21 22 22 22 22 21 21 21 21 22 22 22 22 22 22 21 21 21 21 22 22 22 22 21 21 21 21 20 19 20 20 20 19
40 40 41 41 39 40 40 41 40 40 40 40 40 40 38 39 39 38 36 32 27 24 24 27 29 27 24 24 29 31 31 33 34 32 32 32 32 32 33 30 23 22 22 21 22 22 22 22 22 22 22 21 22 21 21 22 22 21 21 21 21 22 22 22 22 22 21 21 21 21 21 21 21 21 22 22 21 21 21 20 20 19 19 19 19 19
39 39 40 41 40 40 40 40 40 41 41 40 40 38 32 32 33 30 29 29 25 23 25 29 31 28 23 24 30 34 35 37 36 35 33 32 32 32 33 31 24 22 22 21 22 22 22 23 23 22 22 22 22 22 22 22 22 21 21 21 21 22 22 22 21 21 21 21 21 21 21 20 21 21 21 21 21 21 20 20 19 19 19 19 19 18
38 39 40 40 41 40 39 37 37 39 40 40 38 33 27 25 25 24 24 25 24 23 27 31 30 27 24 26 32 34 36 37 37 36 35 34 33 31 32 31 25 23 23 22 22 23 23 24 23 23 22 22 22 22 23 22 22 21 21 21 22 21 21 21 21 21 20 20 20 20 21 20 21 21 20 20 20 20 19 19 19 19 19 18 18 18
31 37 40 39 39 40 39 35 31 33 37 37 34 28 24 23 23 23 23 24 24 24 28 32 30 25 25 29 34 35 36 37 37 37 36 35 33 32 32 30 25 24 24 23 23 23 23 24 23 22 22 22 22 22 22 22 22 22 21 21 21 21 21 20 20 20 20 20 20 20 20 20 20 20 20 19 19 19 19 19 18 18 18 18 17 17
25 29 36 38 38 39 40 37 34 35 37 37 38 34 27 24 24 23 23 23 24 24 26 29 28 24 24 28 34 36 35 36 36 36 36 35 33 32 31 28 25 25 25 23 23 24 23 24 23 22 22 22 23 22 22 22 22 22 22 21 21 21 20 20 20 20 19 19 19 19 20 20 20 20 19 19 19 19 18 18 18 18 18 18 17 17
25 26 37 41 40 41 40 39 40 38 34 36 41 35 28 29 29 25 24 25 24 24 25 26 27 27 29 32 36 35 34 36 36 36 36 34 33 32 30 28 25 25 25 24 23 23 23 23 23 22 22 23 23 22 22 22 22 22 22 21 21 21 20 20 20 19 19 19 19 19 20 20 20 20 20 19 19 18 18 18 18 18 17 17 17 17
25 27 40 42 39 42 40 40 42 37 32 35 35 30 32 39 35 26 24 26 25 24 24 25 26 28 30 32 35 35 33 35 35 35 35 33 33 32 30 27 25 25 26 24 23 23 23 23 23 23 22 22 22 22 22 22 22 22 21 21 21 20 20 20 19 19 19 19 19 19 20 20 20 20 19 19 19 18 18 17 17 17 17 17 17 17
30 27 38 42 38 41 41 40 42 40 37 34 30 32 38 40 37 30 24 24 24 23 25 25 25 25 25 27 32 35 34 34 34 34 34 33 32 32 29 26 26 26 26 24 23 23 23 23 23 23 22 22 22 22 22 22 22 22 21 21 20 20 20 19 19 19 19 19 19 19 19 19 19 19 19 18 18 18 18 17 17 17 17 17 17 17
35 26 33 42 40 40 43 39 36 39 41 37 34 39 37 29 28 28 25 24 24 23 24 25 25 24 23 25 30 33 33 33 33 34 33 32 33 31 28 26 26 26 26 25 23 23 23 23 23 22 22 22 22 22 22 22 22 22 21 21 20 20 20 19 19 19 19 19 19 18 19 19 18 19 18 18 18 18 18 17 17 17 17 17 17 17
38 28 27 39 42 40 41 37 31 33 39 40 38 40 38 31 28 27 26 26 24 23 24 24 24 24 26 30 33 32 33 33 32 33 33 32 32 30 27 26 26 26 25 24 23 23 23 23 23 22 22 22 22 22 22 22 22 22 21 20 20 20 20 19 19 19 19 19 18 18 18 18 18 18 19 19 18 18 18 17 17 17 17 17 18 18
39 32 25 34 41 37 34 35 34 33 35 35 33 32 33 33 32 30 29 28 25 24 23 24 23 23 27 34 35 33 32 32 32 32 32 32 31 29 27 27 26 26 24 23 23 23 23 23 22 22 22 22 22 22 22 22 22 21 21 20 20 20 20 20 19 19 19 18 18 18 18 18 18 18 18 19 18 18 18 17 17 17 17 17 18 18
37 33 27 28 32 30 32 39 41 39 39 37 34 32 32 32 30 27 26 27 27 25 24 24 23 23 27 33 35 33 32 32 33 32 31 31 31 29 27 27 26 25 24 23 23 22 22 23 22 22 22 22 22 22 22 22 21 21 21 21 21 21 21 20 19 19 19 18 18 18 18 18 17 18 18 18 18 18 18 17 17 17 17 17 17 17
38 36 29 26 30 34 38 42 41 40 41 40 38 38 38 35 30 24 23 25 26 26 26 26 23 24 28 32 34 34 33 33 33 32 31 30 29 28 27 27 25 25 24 24 23 23 23 22 22 21 21 21 21 22 22 21 21 21 21 22 22 22 21 20 19 19 19 19 18 18 18 18 17 17 17 17 18 18 18 17 17 17 17 17 17 17
38 35 28 25 31 36 39 41 42 42 41 37 37 40 39 37 35 31 30 29 26 25 26 25 23 24 29 33 34 33 33 33 32 31 31 30 29 28 26 25 25 25 24 24 23 23 22 22 21 21 21 21 21 22 21 21 21 21 21 22 22 21 20 20 19 19 19 19 19 18 18 17 17 17 17 17 18 18 18 18 17 17 17 17 17 18
34 32 29 24 25 28 30 33 35 37 38 36 37 40 39 39 39 36 34 32 27 25 26 25 22 24 29 32 32 32 33 32 31 31 30 29 28 26 25 25 25 25 24 23 22 21 21 21 21 21 21 21 21 21 21 21 21 21 22 22 22 21 21 20 20 20 19 19 19 18 18 17 17 17 17 17 18 18 18 18 18 18 18 17 18 18
35 34 31 24 22 24 24 25 27 30 34 36 38 39 39 39 38 34 30 27 25 25 27 25 22 24 28 30 31 32 32 31 31 31 30 29 27 26 25 24 24 24 23 22 21 20 20 20 20 20 21 21 21 20 20 21 21 21 22 23 22 21 21 21 20 20 19 18 18 18 18 17 17 17 17 18 18 18 18 18 18 18 18 18 18 18
37 36 34 29 25 26 25 28 34 35 32 31 34 37 38 39 39 35 28 25 25 26 25 25 25 25 27 30 31 31 31 30 31 30 28 28 27 25 25 24 24 24 22 21 21 20 20 20 20 20 20 21 21 20 20 20 21 22 22 22 22 21 21 21 20 20 19 19 19 19 19 18 18 18 18 18 18 18 18 18 18 18 18 18 18 19
35 32 34 34 31 32 34 35 38 38 33 31 33 34 37 39 39 35 28 28 31 26 23 26 28 25 26 31 31 30 31 30 30 29 28 28 27 25 25 25 24 23 22 21 20 20 20 20 20 20 20 20 20 20 20 21 22 22 22 22 21 21 21 20 20 20 19 19 19 19 19 18 18 18 17 17 18 18 18 18 18 18 18 18 18 18
35 30 33 35 33 36 39 38 38 38 37 37 36 34 36 38 36 32 30 34 34 26 23 28 29 27 29 31 31 31 30 29 29 29 28 27 26 25 25 25 24 23 22 21 20 20 20 20 20 20 20 20 20 20 20 21 22 22 21 21 21 21 20 20 20 20 19 19 19 19 19 18 18 17 17 17 17 18 18 18 17 18 18 18 17 17
34 31 35 36 32 34 38 39 39 39 36 36 36 37 38 37 36 34 32 34 33 29 29 31 30 29 32 32 31 31 30 29 29 28 27 27 26 26 25 25 24 23 22 21 21 21 20 20 20 20 20 20 20 20 21 21 22 21 21 21 21 20 20 20 20 20 20 19 19 19 18 18 18 17 17 17 17 18 18 18 18 18 18 18 17 17
33 31 37 37 30 30 36 38 39 39 36 34 35 38 39 36 35 35 34 33 31 30 32 32 29 29 33 33 32 31 30 29 28 27 27 27 26 26 26 25 24 24 23 22 21 21 20 20 20 20 20 20 20 21 21 21 21 21 20 20 20 20 20 19 20 20 19 19 19 18 18 18 18 17 17 17 18 18 18 18 18 18 18 18 17 17
34 33 36 35 26 26 33 36 36 37 35 31 31 35 36 34 33 34 34 33 31 29 30 29 26 28 32 32 31 30 29 28 27 27 27 26 26 26 26 25 24 24 23 22 22 21 20 20 20 20 20 20 20 21 21 21 21 20 20 20 20 20 20 20 20 19 19 18 18 18 18 18 18 18 17 17 17 17 17 18 18 18 18 18 17 17
37 34 33 31 25 24 31 34 33 33 29 26 28 33 35 35 35 34 33 33 33 32 29 27 28 31 32 31 30 29 28 28 27 27 26 26 27 26 26 25 25 24 24 23 22 21 21 20 21 21 20 20 21 21 21 21 20 20 20 20 20 20 20 19 19 19 18 18 18 18 18 18 18 18 17 17 17 17 18 18 18 18 18 18 17 17
37 35 34 32 26 24 30 33 31 27 23 24 31 36 37 36 34 31 30 30 32 33 32 31 32 33 32 30 30 29 28 28 27 27 27 27 27 26 26 26 25 24 24 23 22 22 21 21 21 21 21 21 21 21 21 20 20 20 19 20 20 20 20 19 19 18 18 18 18 18 18 18 18 18 18 17 17 17 18 18 18 18 18 18 17 17
37 36 35 33 28 25 29 29 25 22 24 30 36 38 37 35 33 31 30 30 31 32 33 33 31 31 31 31 31 30 29 29 28 27 27 27 27 27 26 25 25 24 24 23 22 22 21 21 21 21 21 21 21 21 20 20 19 19 19 20 20 19 19 19 19 18 18 18 18 18 18 18 18 18 18 18 18 18 18 18 18 18 18 17 17 17
37 36 34 32 30 27 26 24 23 25 30 35 37 37 36 35 33 30 29 29 30 31 32 31 28 26 26 27 29 30 29 28 28 27 27 28 27 27 26 25 25 25 24 23 22 22 22 22 22 22 21 21 21 21 20 20 19 19 20 20 20 19 19 19 18 18 18 18 18 18 18 18 18 18 18 18 18 18 18 18 18 17 17 17 17 17
36 35 33 29 28 27 24 23 25 27 28 32 34 35 36 35 33 30 28 28 31 32 31 29 25 25 25 23 24 29 29 27 27 26 27 28 27 27 27 26 25 25 24 24 23 22 22 22 22 21 21 21 21 20 20 20 20 20 20 20 19 19 19 19 18 18 18 18 18 18 18 18 18 18 18 18 18 18 18 18 17 17 17 17 17 17
36 36 33 28 27 28 24 23 25 24 23 28 33 35 36 35 34 33 30 28 31 33 31 29 25 24 24 22 23 27 28 26 25 26 27 27 27 27 27 26 26 25 24 24 23 22 22 22 22 21 21 21 21 20 20 20 20 20 20 20 19 19 19 19 18 18 18 18 18 18 18 18 18 18 18 18 18 18 18 18 17 17 17 17 17 17
36 37 36 30 26 27 24 22 24 23 24 31 35 35 36 35 35 34 29 27 31 33 31 30 27 25 24 24 25 27 27 26 26 26 26 27 27 27 27 26 26 25 24 24 23 23 22 22 22 21 21 21 20 21 20 20 21 20 20 20 19 19 19 19 18 18 18 18 18 18 17 18 18 18 18 18 18 18 18 18 17 17 17 17 17 17
36 36 34 29 25 25 25 23 24 25 27 33 35 35 36 37 36 32 24 24 31 33 31 30 28 25 26 28 28 28 27 27 27 27 27 27 27 27 26 26 25 25 24 24 23 23 22 22 22 22 22 21 21 21 20 20 21 20 20 20 19 19 19 19 18 18 18 18 18 17 17 18 18 18 18 18 18 18 18 18 17 17 17 17 17 17
33 33 32 28 25 25 24 23 24 26 29 33 35 35 36 36 33 26 22 26 32 32 31 31 28 25 26 29 29 28 27 28 28 27 27 28 27 27 26 26 25 25 24 24 23 23 22 22 22 22 22 21 21 21 20 20 20 20 20 20 19 19 20 19 19 18 18 18 18 17 17 18 18 18 18 18 18 18 18 18 18 18 17 17 17 17
29 29 29 28 26 26 25 24 24 26 28 32 34 35 34 32 27 23 25 30 31 30 31 31 28 27 27 29 29 29 28 28 28 28 28 27 27 26 26 26 25 25 24 24 23 22 22 22 22 22 22 22 21 21 21 20 20 20 20 20 20 20 19 19 19 19 18 18 18 18 18 18 18 18 18 18 18 18 18 18 18 18 18 18 18 17
29 27 25 27 28 26 25 23 23 24 26 30 32 32 31 29 26 26 29 30 29 29 30 30 28 27 27 29 30 29 28 28 28 28 28 27 26 26 26 26 25 25 24 23 23 22 23 23 23 23 22 22 21 21 20 20 20 20 20 20 20 20 19 19 19 19 18 18 18 18 18 18 18 18 18 18 18 18 18 18 18 18 18 18 18 17
30 27 25 27 29 26 22 23 24 25 27 31 31 30 29 28 27 27 28 29 29 30 29 27 26 25 27 29 30 28 28 29 28 27 27 26 26 26 26 25 25 25 24 23 23 23 23 23 23 23 23 22 21 20 20 20 20 20 20 20 20 19 19 19 19 18 18 18 19 19 18 18 18 18 18 18 18 18 18 18 18 18 18 18 17 17
29 29 28 28 30 28 26 27 29 29 30 32 32 31 30 29 28 28 29 31 31 30 29 27 26 26 28 30 30 29 29 29 28 27 27 26 26 25 25 25 25 25 24 24 23 23 23 23 23 23 23 22 21 20 20 20 20 19 19 20 19 19 19 19 18 18 18 18 19 18 18 18 18 18 18 18 18 18 18 18 18 18 18 18 17 17
31 31 31 30 31 30 30 30 31 31 31 32 33 33 32 32 31 30 31 31 31 31 30 28 28 29 30 30 29 29 29 28 28 27 27 26 26 25 25 25 25 24 24 24 23 23 23 24 23 23 23 22 21 20 20 20 19 19 19 19 19 18 18 18 18 18 18 18 19 19 18 18 18 18 18 18 18 18 18 18 19 18 18 18 17 17
32 32 31 31 29 28 27 29 30 31 30 31 32 32 32 32 31 31 30 30 30 30 29 28 28 29 29 29 29 29 29 28 28 27 27 26 25 25 25 25 25 24 24 24 23 23 24 24 24 23 23 22 21 20 20 19 19 19 19 19 19 18 18 18 18 18 19 19 19 19 18 18 18 18 18 18 18 19 19 19 19 18 18 18 18 17
30 30 30 30 30 29 28 29 30 30 29 30 30 30 31 31 30 28 28 27 28 29 29 29 29 29 29 29 29 29 29 28 28 27 26 25 24 24 25 24 24 24 24 23 23 23 24 24 24 23 22 21 21 20 20 19 20 20 19 19 19 19 19 18 18 19 19 19 19 19 19 19 19 19 19 19 19 19 19 18 18 19 19 18 18 18
29 30 29 29 30 30 30 30 30 30 29 29 29 30 30 29 27 25 25 25 25 26 28 29 29 29 29 28 28 28 28 28 27 26 26 25 24 24 24 24 24 24 24 23 23 23 24 24 23 22 22 21 20 20 20 20 20 19 19 19 19 19 19 18 19 20 20 20 20 20 19 19 19 19 19 19 19 19 18 18 18 18 19 18 18 18
30 30 30 29 29 29 29 30 30 29 28 28 29 30 29 28 26 25 24 24 24 24 26 28 29 29 29 28 28 28 28 27 27 26 25 25 24 24 24 24 24 24 24 24 23 23 24 23 23 22 21 21 20 20 20 20 20 19 20 20 20 19 19 19 19 20 20 20 20 20 20 20 20 20 19 19 19 19 18 18 18 18 19 18 18 18
31 30 30 29 28 28 29 30 30 29 27 28 30 30 29 29 27 26 26 26 25 24 25 28 28 28 28 29 29 28 27 27 27 26 25 25 25 24 24 24 23 23 24 24 23 23 23 23 22 22 21 21 20 20 20 20 20 20 20 20 20 19 19 19 19 20 20 20 20 21 21 21 21 21 20 19 19 19 19 19 19 19 19 19 18 18
Height
740 761 767 765 763 755 747 741 743 749 755 762 769 769 762 762 760 754 756 743 734 754 763 762 772 778 784 783 774 768 767 773 783 782 779 780 778 775 776 776 777 780 779 782 789 793 794 795 798 800 801 803 804 805 806 807 808 808 809 810 811 812 814 814 814 815 815 815 816 816 817 818 819 820 821 822 823 824 824 824 825 825 825 825 824 824
742 765 766 753 748 743 740 737 735 741 748 755 762 762 759 760 755 743 743 736 728 748 759 760 772 777 777 780 773 768 770 775 782 784 780 778 776 771 772 774 774 777 777 783 792 794 795 797 799 801 802 803 803 804 805 806 807 808 807 808 809 811 813 814 814 815 815 816 817 817 818 818 819 820 821 823 824 824 824 824 825 825 825 825 825 825
761 765 754 739 735 732 734 737 739 742 743 749 753 758 762 757 752 743 735 731 731 746 758 763 774 776 774 775 769 765 769 772 774 776 775 777 776 771 770 771 772 775 779 789 798 799 799 800 801 801 801 802 802 802 804 805 807 807 806 806 807 809 811 813 814 814 816 816 817 818 818 819 820 821 822 823 824 825 825 824 825 826 826 826 825 825
772 760 741 730 728 731 737 738 742 746 745 748 752 760 762 751 754 757 743 733 731 738 751 758 766 769 769 769 764 761 764 767 771 772 772 776 777 772 769 768 769 774 783 801 809 805 802 802 801 800 799 799 799 800 803 805 807 807 807 808 807 809 811 812 814 815 816 817 817 818 819 820 821 822 823 823 824 825 825 825 826 826 826 826 826 826
762 745 728 728 731 736 742 740 741 752 753 750 749 755 758 749 750 754 745 734 731 737 743 754 773 773 766 771 768 759 764 772 775 775 774 774 772 769 765 765 767 774 790 809 814 805 800 798 796 795 795 797 798 800 802 804 806 808 809 810 810 810 812 813 815 816 817 817 818 819 820 821 821 822 823 824 825 825 826 827 827 826 826 827 827 827
751 734 724 732 735 733 737 739 739 747 753 753 747 744 747 745 744 745 742 741 751 760 750 755 788 789 767 768 767 760 773 784 781 776 773 771 770 766 763 763 768 781 799 809 806 797 792 790 791 794 795 797 799 801 803 805 806 808 809 811 812 813 813 815 816 817 818 818 818 819 820 821 822 823 824 825 826 826 827 827 827 828 827 827 827 827
742 731 726 735 738 733 733 736 735 737 751 761 747 734 737 740 744 746 744 750 766 772 753 749 781 798 786 781 776 774 786 790 782 775 769 767 768 765 762 764 776 793 803 802 795 790 791 793 795 797 798 799 800 801 803 805 807 809 810 811 813 814 815 816 817 818 818 818 819 820 821 822 823 823 824 825 826 827 827 827 828 828 828 829 828 828
737 736 734 734 738 743 744 743 736 734 754 761 740 731 738 740 745 744 742 752 756 754 752 748 765 796 808 798 782 779 787 787 781 774 767 763 763 764 765 772 789 800 796 790 789 790 795 798 797 798 799 800 801 803 804 806 808 809 811 812 813 815 816 817 818 818 819 819 820 821 822 823 824 824 825 826 826 827 827 828 828 829 829 829 829 829
730 738 740 735 741 747 744 738 729 731 748 746 728 728 736 738 742 739 741 752 749 755 769 762 764 795 810 794 774 770 780 787 780 770 765 762 761 764 769 778 790 790 785 786 788 791 795 797 796 797 800 802 804 806 808 809 809 810 811 812 814 816 817 818 819 819 820 821 821 822 823 824 824 825 826 826 827 827 828 828 829 829 830 830 830 830
728 727 725 729 741 742 733 727 724 732 741 730 717 722 730 735 738 737 745 753 754 769 780 765 762 784 796 787 773 769 777 781 776 768 762 758 758 765 768 774 782 781 783 788 788 790 794 795 797 799 801 804 807 809 810 811 810 810 811 812 814 816 818 819 820 820 821 822 823 823 824 825 825 826 826 827 827 828 829 829 830 830 831 831 831 831
725 715 713 721 730 728 723 722 723 728 730 725 725 733 738 739 737 739 743 748 766 782 773 756 752 764 787 789 772 768 769 765 765 765 761 757 758 764 764 768 776 779 784 789 789 792 795 796 799 801 803 805 807 809 811 812 811 812 813 813 815 817 818 820 821 821 822 823 823 824 825 825 826 827 827 827 828 829 830 830 831 832 832 832 832 832
729 728 723 718 717 718 724 727 724 721 720 727 736 740 749 751 749 756 757 760 784 792 766 747 743 754 787 795 772 763 758 748 751 755 757 758 759 762 761 763 773 779 782 787 791 794 795 797 799 801 803 806 807 809 810 813 813 813 814 814 815 818 819 821 822 822 823 823 824 825 826 827 827 828 828 828 829 830 831 832 832 833 833 833 834 834
736 733 726 718 714 717 733 742 738 731 727 733 740 746 766 777 776 783 782 777 786 781 754 743 748 759 778 780 765 762 756 744 742 743 745 750 755 759 759 761 771 777 780 785 790 793 794 796 799 800 803 805 807 808 810 812 813 813 815 816 817 819 821 822 823 823 824 824 826 826 827 828 829 829 830 830 831 832 833 833 834 834 834 835 835 835
746 733 722 726 722 713 728 748 754 748 740 742 746 756 777 790 799 804 793 783 784 773 750 741 753 765 770 767 757 754 753 743 738 738 739 743 749 755 757 761 771 776 779 785 789 792 793 795 799 801 804 806 807 808 810 812 814 815 817 817 818 820 821 823 824 824 826 826 827 828 828 829 830 831 832 832 833 834 834 835 835 836 836 836 836 836
759 752 728 725 725 715 722 735 742 742 740 739 734 743 765 775 789 798 788 783 780 766 752 746 757 770 776 772 755 745 745 740 737 737 737 741 746 752 757 764 773 777 780 786 790 792 794 797 801 803 805 807 809 810 812 814 816 817 818 819 820 821 824 825 826 827 828 829 829 830 830 831 832 832 833 834 834 835 836 836 836 837 837 837 838 837
755 751 716 704 707 708 717 718 717 733 746 737 724 737 754 750 758 772 770 766 763 763 760 751 752 758 761 758 744 740 744 739 739 739 739 746 749 753 761 767 774 778 780 785 790 794 796 799 802 804 806 809 810 812 814 815 817 819 820 821 822 824 827 828 828 829 830 831 831 831 832 832 833 833 834 835 836 836 837 837 837 838 838 838 838 838
751 745 709 701 707 704 709 708 706 730 747 738 735 745 738 721 731 755 761 750 752 772 770 750 751 757 758 758 746 744 749 744 742 744 744 750 753 756 765 769 774 777 779 785 791 794 797 800 803 805 807 809 811 814 815 816 818 820 822 823 824 826 828 829 830 830 831 832 832 832 833 833 833 834 835 836 837 837 838 838 839 839 839 839 839 838
739 745 716 706 718 705 697 706 707 712 726 739 747 738 722 718 724 740 760 762 763 775 763 744 753 766 776 780 763 753 757 754 750 749 750 754 756 760 767 771 775 776 779 785 791 793 796 800 803 805 808 810 812 814 816 817 819 821 823 824 826 828 829 830 831 831 832 833 833 834 834 834 835 836 836 837 838 839 839 839 839 840 840 840 840 839
729 751 731 704 714 707 695 715 727 714 709 726 732 719 724 747 750 747 762 772 776 781 769 752 753 763 773 776 767 760 759 758 756 755 757 758 757 762 769 774 776 777 780 785 791 794 795 799 803 806 809 811 813 815 816 818 820 821 824 825 827 829 829 831 832 832 833 834 834 835 835 836 836 837 838 838 839 839 840 840 840 841 841 841 840 840
725 753 749 711 705 710 707 724 743 734 714 714 721 718 724 740 747 748 749 754 765 778 778 768 764 770 768 757 757 760 757 758 762 761 760 759 758 764 770 774 777 779 781 786 791 794 795 799 803 806 809 811 813 815 816 818 820 821 824 826 828 829 830 831 833 833 834 835 836 836 836 837 838 838 839 839 840 840 840 841 841 841 842 841 841 841
724 746 756 727 707 719 727 727 733 735 726 724 733 737 735 731 733 740 740 738 749 766 773 772 777 783 767 746 746 754 754 756 759 761 762 760 760 765 769 774 777 780 784 788 791 794 796 800 803 806 809 811 813 816 817 818 820 822 824 827 828 829 830 832 833 835 836 836 837 837 838 838 839 839 840 840 840 841 841 842 842 842 842 842 842 842
729 740 750 741 726 729 729 712 707 715 717 721 727 730 732 730 735 753 759 744 739 751 759 762 778 788 768 746 744 748 751 752 751 757 762 761 762 766 769 773 776 781 786 789 791 794 797 800 804 807 809 812 814 815 817 818 820 822 825 827 828 828 830 832 833 835 836 837 838 838 839 839 840 841 841 841 841 841 842 842 843 843 843 843 843 843
721 733 745 745 732 722 712 697 693 697 701 709 714 714 718 720 728 752 766 753 739 740 739 741 767 786 768 747 743 744 746 747 748 754 761 763 765 767 770 773 777 782 785 787 790 793 797 800 804 807 810 812 814 815 817 819 820 823 825 826 827 828 830 832 834 835 837 837 838 839 840 841 841 842 842 842 842 842 842 843 844 844 844 844 845 844
718 736 749 750 736 719 708 698 691 689 700 718 718 711 714 716 716 724 734 737 739 741 738 743 769 786 768 746 743 744 745 748 752 755 760 764 766 769 774 777 779 782 784 787 790 794 798 801 804 808 810 813 815 816 818 819 821 823 824 825 826 828 831 832 834 835 836 837 838 839 841 842 842 843 843 843 843 843 843 844 845 845 845 845 845 845
725 739 750 760 761 751 740 732 720 708 712 724 721 713 714 713 712 716 718 725 739 741 733 745 777 790 770 752 750 748 749 754 756 755 760 766 770 773 777 779 780 783 785 789 792 796 799 802 805 808 811 812 814 816 817 820 822 823 823 824 826 828 831 833 833 835 836 838 839 840 842 843 843 843 843 843 844 844 844 845 845 845 846 846 845 845
725 735 743 762 777 775 767 757 744 731 723 718 712 712 715 713 716 724 726 733 744 737 727 744 778 789 772 760 758 754 754 759 758 758 762 767 772 776 779 781 782 783 787 791 794 798 801 803 806 809 810 812 814 816 818 820 822 823 823 824 826 828 831 832 833 835 837 839 840 841 842 842 843 843 844 844 844 845 845 846 846 846 846 846 845 845
727 731 732 746 758 757 753 741 728 727 730 727 718 713 714 712 711 719 731 741 740 733 739 753 767 776 772 764 761 758 758 762 761 764 767 769 773 777 779 781 782 784 789 793 796 800 802 805 807 809 811 813 814 817 819 820 821 822 823 824 826 829 830 832 833 835 838 839 840 840 841 841 843 843 844 845 845 846 846 846 847 847 847 846 845 845
736 740 733 735 737 733 731 726 718 718 725 728 725 720 714 708 706 715 728 731 724 736 761 762 756 767 771 762 761 761 760 763 764 766 769 771 774 777 779 781 783 786 790 793 797 800 803 805 807 809 811 812 814 817 818 820 821 821 823 825 827 829 831 832 834 836 838 839 839 840 841 842 844 844 845 846 846 846 847 847 848 848 848 848 847 846
738 746 734 730 731 724 720 719 716 715 714 715 720 721 716 711 714 722 727 721 720 744 766 759 751 762 763 755 755 756 757 762 765 765 768 770 773 777 779 782 784 787 790 794 798 800 802 805 807 809 811 812 815 817 817 819 820 821 823 825 827 830 831 833 835 836 837 839 839 840 841 843 844 846 846 846 846 847 848 848 849 848 848 849 848 847
734 745 734 729 731 723 715 713 711 711 713 714 717 717 715 717 723 731 737 735 736 748 753 750 753 757 751 748 749 748 752 758 760 764 768 771 774 777 779 782 784 787 790 793 796 798 801 804 806 809 811 813 815 816 817 819 820 822 824 825 828 830 831 833 835 836 837 839 839 841 842 843 844 846 847 847 847 848 848 848 849 849 849 848 848 848
732 742 731 729 737 731 718 709 704 709 718 722 719 713 713 721 727 731 738 744 750 753 748 747 758 758 745 740 743 746 751 756 762 768 771 772 774 776 778 782 784 786 789 792 795 797 800 803 806 809 810 813 814 815 817 819 820 823 824 826 829 831 832 834 835 836 838 839 840 842 843 843 844 846 847 847 848 848 848 849 849 849 849 848 848 849
732 739 730 731 746 743 724 714 711 713 722 730 727 721 723 730 732 732 736 742 750 757 756 757 765 763 748 741 745 750 753 759 766 770 771 773 774 775 779 781 784 786 788 791 793 796 800 803 805 808 810 812 814 815 817 819 821 824 825 827 830 831 833 835 835 837 839 839 841 843 843 844 845 846 847 848 848 849 849 849 849 849 849 849 849 849
725 736 734 736 750 748 731 726 726 727 741 753 744 732 729 730 731 736 742 744 744 751 761 765 762 755 747 746 752 757 758 763 766 767 770 774 773 774 778 779 782 785 786 790 793 796 799 802 804 807 810 812 814 815 817 820 822 824 826 828 830 831 833 834 835 838 839 840 842 843 843 844 845 846 847 848 849 849 849 849 850 849 849 849 849 850
724 730 733 734 747 752 738 731 736 751 771 770 743 725 725 730 739 751 757 753 745 744 750 754 750 745 746 750 755 759 760 762 764 765 766 769 771 774 776 778 781 784 785 789 793 795 799 802 804 807 809 811 813 815 818 820 822 825 827 828 830 831 833 835 836 838 839 841 842 843 843 845 845 846 847 847 848 849 849 849 849 849 849 849 849 849
728 729 732 733 742 748 738 739 760 779 775 751 726 718 721 728 739 751 758 755 750 747 746 748 750 750 750 750 750 755 758 758 760 764 764 765 768 771 775 778 780 783 786 789 792 795 798 801 803 805 808 811 813 815 818 821 823 825 827 828 830 832 833 835 837 838 839 841 842 843 844 844 845 846 847 847 848 848 849 849 849 849 849 849 849 850
726 730 732 735 741 746 746 756 773 772 750 731 724 721 721 730 742 751 758 756 750 750 750 754 758 758 759 762 757 754 757 759 761 764 764 764 766 768 773 777 779 781 785 788 791 795 797 799 801 804 807 810 813 815 818 821 823 825 827 828 830 832 834 835 837 838 839 840 841 843 843 844 845 846 846 847 848 848 848 849 849 850 850 849 850 849
724 732 737 742 747 752 757 757 754 754 750 741 736 729 724 732 743 750 761 760 748 744 749 756 762 759 762 777 775 761 759 766 771 771 765 763 766 767 770 774 777 781 784 787 791 795 797 799 801 804 807 810 812 815 818 820 823 824 826 828 830 832 834 835 837 838 839 840 841 842 843 844 845 845 846 847 847 848 848 849 849 850 850 850 849 849
719 728 738 750 752 751 760 760 755 766 770 749 734 729 722 724 730 736 752 759 747 741 745 753 762 761 763 780 784 769 765 776 782 777 768 765 766 767 769 773 777 781 785 788 791 794 797 799 801 804 808 810 813 815 817 820 822 823 826 828 829 832 834 835 836 838 838 840 841 842 843 844 844 845 846 846 847 847 848 848 849 850 850 850 849 848
717 722 730 746 753 752 762 769 764 769 765 742 730 726 718 720 724 730 752 763 747 739 744 749 758 763 762 768 771 766 771 782 783 775 767 765 765 766 769 774 777 781 785 788 791 794 796 799 802 805 808 810 813 816 817 820 821 823 826 828 829 832 833 834 836 837 838 839 840 841 843 843 844 845 845 846 846 847 847 847 848 849 849 849 849 848
724 726 731 745 753 750 757 763 759 759 756 740 730 727 720 718 720 741 776 779 748 736 743 747 757 766 762 757 758 763 772 776 773 767 763 762 764 767 770 773 777 781 785 787 791 794 796 799 802 805 807 810 813 815 817 820 821 824 826 827 829 831 832 833 835 836 838 839 839 841 842 843 844 845 845 846 846 846 847 847 847 848 848 848 848 847
731 731 735 743 746 746 754 759 756 757 755 740 729 726 721 720 735 768 795 780 748 741 744 744 755 767 763 756 756 761 763 760 757 758 759 761 764 768 770 774 778 781 784 787 791 794 797 800 802 804 807 810 813 815 818 820 822 824 825 827 829 831 831 832 834 835 837 839 839 841 842 842 844 844 844 845 846 846 846 846 847 847 847 847 847 847
740 739 740 743 744 747 753 753 754 761 757 741 730 725 724 740 768 783 775 755 746 749 747 744 751 757 757 754 753 754 754 751 752 756 759 762 766 768 771 774 778 781 784 788 791 795 797 800 802 804 807 810 813 816 818 820 823 824 825 827 829 830 830 832 834 835 837 838 839 840 841 842 843 844 844 845 845 845 846 846 846 846 846 846 846 846
744 748 750 748 747 754 761 764 772 781 767 743 738 741 742 757 773 767 751 746 747 747 746 747 750 753 755 753 748 749 751 751 754 758 760 763 766 768 771 775 778 781 785 788 792 795 797 799 801 804 807 809 812 815 818 821 823 823 825 827 828 829 831 833 835 836 837 838 839 840 841 842 843 843 844 845 845 845 845 845 845 845 845 845 845 845
746 751 756 753 751 762 776 779 780 779 761 742 747 756 754 753 754 751 750 751 747 744 748 754 757 757 755 749 746 748 752 752 755 759 762 766 768 769 773 775 778 782 786 789 792 794 797 799 801 803 807 809 812 816 819 821 822 823 825 827 828 830 832 833 835 836 837 838 839 839 841 842 842 843 843 844 844 844 845 845 845 844 844 845 844 844
752 749 751 753 751 756 765 765 758 753 746 739 741 746 745 743 742 744 746 745 743 743 747 753 758 756 749 745 745 748 750 753 756 759 763 767 768 770 774 776 778 782 786 789 792 795 797 799 800 803 806 809 812 816 819 821 822 824 825 827 828 830 832 833 835 836 837 838 838 839 840 841 842 842 843 843 843 843 843 844 844 843 843 843 843 843
743 740 744 750 751 750 752 750 745 744 744 739 736 736 736 736 737 738 740 742 742 741 742 747 751 749 745 745 746 747 750 753 757 760 763 766 770 772 775 777 779 783 786 789 792 795 796 798 800 803 805 808 813 817 819 821 823 824 825 827 829 831 832 834 835 836 837 838 838 839 840 840 841 842 842 842 842 842 842 842 842 842 842 841 841 842
740 739 745 751 755 759 760 755 747 746 746 741 738 737 735 735 737 739 741 743 742 741 744 748 747 745 745 745 746 748 751 753 757 761 764 767 771 774 776 779 781 783 787 790 792 794 795 796 799 801 803 808 814 817 819 821 823 824 825 827 829 831 832 834 835 835 836 837 837 839 839 839 840 840 840 841 841 841 841 841 841 841 840 839 840 840
750 745 750 754 755 758 759 752 744 744 745 742 741 743 742 742 743 743 744 745 745 745 746 746 745 745 746 746 747 750 752 754 758 763 765 768 773 775 777 780 782 784 787 790 791 793 794 795 798 801 804 809 814 817 819 821 822 824 825 827 829 830 832 833 834 834 835 835 836 837 837 838 838 838 839 839 839 840 840 840 840 839 838 838 838 838
750 750 753 755 755 754 754 750 746 748 750 747 745 746 745 744 746 746 746 746 746 748 748 746 745 746 747 749 751 752 755 758 760 763 767 771 773 776 778 781 783 785 788 790 791 793 794 795 798 802 806 811 815 817 818 820 822 823 825 826 828 829 831 832 832 832 833 833 834 835 835 835 836 836 837 838 838 838 839 838 838 838 837 837 837 837
747 752 752 754 758 759 757 753 750 755 760 755 749 748 746 744 746 748 748 748 752 755 755 751 750 750 750 752 753 754 758 761 762 764 769 771 773 776 779 781 784 786 788 789 792 794 795 796 799 803 808 812 814 816 818 820 822 823 824 826 827 828 830 831 831 831 832 832 832 833 833 833 833 833 834 836 836 836 837 837 836 836 836 836 836 836
745 748 748 753 759 758 752 745 744 751 758 753 747 747 747 745 748 751 752 753 757 761 758 754 754 757 757 756 755 756 759 761 763 766 769 771 773 777 779 781 784 786 787 789 792 794 796 797 801 805 809 812 814 816 818 819 821 823 824 825 826 826 828 830 830 831 831 831 831 831 830 830 831 831 832 834 835 835 835 835 835 835 835 835 835 834
Wind_Speed
9 9 9 9 9 11 13 12 9 6 11 11 10 12 9 7 4 8 12 12 8 5 6 8 6 7 9 1 9 11 10 12 13 5 4 5 9 9 10 10 9 9 8 12 13 12 12 12 12 11 9 10 11 10 11 11 11 11 13 13 14 12 10 10 9 8 9 9 9 9 9 9 9 10 11 12 12 11 12 12 13 14 13 14 16 16
10 10 11 12 13 14 16 15 12 10 11 12 11 9 7 7 7 2 8 7 3 2 1 10 8 4 9 9 12 12 11 13 15 10 10 10 11 9 10 12 10 9 8 12 13 13 12 11 12 11 9 10 10 10 11 11 11 12 13 14 13 12 10 10 10 11 12 10 9 8 8 8 9 10 10 11 10 9 10 12 13 13 13 15 15 16
11 11 14 16 16 16 14 13 15 16 13 10 9 8 7 6 7 8 4 2 1 4 1 11 11 7 12 14 15 14 13 11 15 15 12 8 9 8 11 12 11 11 10 11 10 11 12 11 11 10 10 9 10 11 11 11 12 13 14 14 13 12 11 11 11 12 13 12 10 10 10 9 9 10 9 9 9 10 11 13 14 13 14 15 15 16
10 11 15 15 15 15 13 13 16 16 12 9 8 8 8 7 8 7 3 4 6 2 3 4 5 5 11 14 13 14 14 11 13 13 10 7 9 9 11 12 11 12 12 14 10 6 7 9 10 10 11 11 11 12 12 12 12 12 13 13 14 14 13 11 12 12 12 12 11 11 11 10 8 8 8 7 8 11 12 13 13 12 13 13 14 15
14 14 15 14 13 16 17 15 14 12 10 10 11 10 9 10 11 8 8 11 7 4 7 2 1 2 8 11 10 12 13 9 10 9 8 10 11 12 12 12 12 9 13 16 8 0 4 10 13 14 14 13 12 12 13 12 11 11 12 12 13 14 13 12 12 11 11 11 10 9 8 6 6 9 10 9 11 12 10 11 11 11 12 12 12 12
16 17 17 15 16 20 20 15 13 12 9 9 12 12 12 13 12 11 13 12 8 1 4 3 4 2 3 6 7 5 11 7 5 9 11 12 12 13 13 14 11 11 17 13 10 10 12 14 15 14 14 13 12 12 12 11 10 12 12 12 12 12 13 12 11 10 10 10 8 7 6 5 7 12 12 10 10 10 9 10 10 10 11 10 10 11
12 17 18 18 20 21 18 12 11 11 8 7 10 12 13 14 14 14 14 10 8 5 4 6 5 3 4 5 9 5 15 9 9 13 14 12 12 14 13 10 8 18 15 11 13 14 10 7 8 11 11 10 12 13 12 11 10 12 12 12 12 12 12 11 11 10 9 10 8 7 8 9 11 11 8 8 9 8 9 10 10 9 9 9 10 12
11 18 19 18 18 17 14 11 10 11 9 7 10 14 13 13 16 17 13 8 9 7 5 7 1 2 2 4 8 5 15 13 13 16 15 12 12 13 11 6 16 16 11 12 12 10 6 5 7 11 11 10 12 12 12 13 12 12 12 13 13 13 13 12 11 11 11 10 9 9 11 12 11 9 7 8 10 9 9 10 10 10 10 10 11 13
12 16 18 17 15 13 12 12 11 13 12 10 13 13 12 15 17 16 12 8 9 10 6 5 5 2 3 5 9 10 14 14 15 16 14 12 12 12 9 12 19 14 13 11 8 8 8 9 10 12 13 12 12 11 12 14 14 14 13 14 15 13 13 12 11 12 11 11 11 11 12 10 9 8 8 10 11 9 9 10 11 12 11 12 12 14
12 13 14 15 13 11 11 10 11 14 13 14 16 11 10 15 16 14 10 8 9 9 9 5 5 6 3 5 8 9 11 11 13 13 12 14 13 11 10 15 17 13 11 9 7 7 9 11 10 10 12 13 12 12 12 13 14 15 15 15 15 14 13 12 11 12 12 12 13 13 12 10 10 10 9 10 10 9 8 9 11 11 11 11 12 14
14 14 12 10 10 11 11 10 12 16 16 16 17 13 12 14 12 11 8 7 9 8 10 10 9 9 2 2 2 4 8 9 9 10 11 14 12 9 11 14 15 11 11 10 8 7 8 10 10 9 13 14 14 15 13 13 14 15 15 17 16 14 13 12 12 13 14 14 14 13 12 12 12 10 9 9 9 9 9 9 11 11 10 10 11 12
15 16 13 8 7 11 12 9 10 14 15 14 13 12 11 9 8 8 7 8 8 7 10 11 10 10 3 1 3 3 6 8 8 8 11 14 12 10 12 13 14 12 13 12 10 9 10 10 10 11 13 14 16 17 15 14 14 15 15 17 17 15 13 13 13 14 15 14 13 12 12 12 11 9 8 10 10 10 10 10 12 11 10 11 11 12
13 13 14 12 10 11 11 10 9 11 12 11 10 9 7 6 6 7 7 7 7 7 10 9 10 9 1 3 3 2 6 5 4 6 9 12 12 13 13 11 13 13 14 14 13 12 10 11 11 12 13 13 15 16 16 15 14 14 15 15 16 15 13 14 14 15 15 13 12 11 11 11 10 10 10 12 12 11 11 10 11 11 11 12 12 12
9 11 15 15 11 12 13 10 8 9 10 10 8 7 6 6 7 7 7 7 7 8 9 11 11 7 2 3 4 5 3 2 1 2 4 9 12 14 14 11 14 14 14 13 13 13 11 11 13 15 14 13 14 15 16 15 14 14 14 14 15 15 14 14 14 15 14 13 12 12 12 11 10 11 11 10 10 10 10 10 10 10 10 11 11 11
9 8 12 15 11 12 15 12 9 9 10 10 9 8 8 8 7 8 7 7 8 8 8 12 10 2 3 2 4 5 3 0 1 3 5 9 13 14 14 14 15 14 13 12 12 12 11 13 16 17 17 16 16 16 16 16 15 15 14 14 15 15 14 13 13 14 13 13 12 11 11 10 9 10 9 9 10 10 10 9 10 10 10 11 10 9
9 8 8 12 12 12 15 16 13 10 9 9 9 10 9 8 8 8 9 10 11 9 7 8 4 4 6 9 10 8 5 5 4 5 7 11 14 14 14 15 15 13 12 13 13 11 11 16 19 18 18 18 18 17 17 17 16 15 15 15 16 15 14 13 13 13 12 12 10 10 10 9 8 9 10 10 10 10 10 9 10 10 10 11 9 8
7 8 6 6 10 10 9 7 11 9 7 6 8 10 9 10 10 8 10 11 12 10 6 7 3 5 7 6 6 8 9 8 7 8 10 13 15 14 13 14 15 13 12 13 11 11 15 17 17 19 20 19 19 18 17 17 17 17 16 16 16 16 14 13 13 13 12 11 11 11 10 10 10 10 11 11 10 10 10 10 11 10 10 11 9 9
6 7 7 6 10 12 6 4 7 10 9 7 6 8 9 12 11 7 7 7 9 9 6 7 5 5 7 3 3 7 9 9 7 9 12 13 13 13 14 14 15 14 13 13 11 12 17 18 17 19 20 19 19 18 18 17 18 18 17 17 17 16 15 14 13 12 12 11 11 11 11 11 11 11 10 11 11 11 10 10 10 10 10 10 9 10
4 6 10 8 5 8 10 7 9 11 12 11 8 8 8 9 8 6 6 6 7 8 5 7 7 2 6 4 6 7 8 9 8 9 12 13 12 13 15 16 15 14 14 13 11 11 14 17 19 20 20 20 19 18 19 19 18 18 17 17 17 16 15 14 13 12 12 11 11 11 12 11 11 10 10 10 11 11 10 10 10 11 10 8 9 11
5 5 8 3 3 5 7 7 6 8 11 12 10 9 8 8 7 6 6 5 5 7 6 7 7 2 5 3 8 8 7 9 8 8 9 11 12 13 14 15 13 13 12 11 11 10 12 17 20 20 20 20 19 19 19 19 19 19 18 16 16 16 15 14 13 13 12 12 12 12 12 11 11 10 10 10 11 11 10 10 10 12 11 9 10 12
5 5 7 5 5 5 5 5 6 7 7 8 8 8 8 7 7 7 7 6 6 7 5 6 4 4 3 2 6 10 9 10 10 9 8 9 12 13 15 14 12 12 13 12 11 11 13 18 20 19 20 19 19 19 17 18 21 20 17 16 15 15 15 14 13 13 12 12 12 12 12 11 11 11 10 11 12 11 12 11 11 12 11 11 12 12
6 5 7 9 6 6 7 8 11 12 10 9 8 9 8 8 7 8 8 7 8 7 6 7 3 4 1 4 5 10 9 11 11 10 9 9 11 13 14 13 13 13 13 12 12 12 14 17 19 19 19 18 18 17 16 20 22 19 17 16 14 14 14 14 13 13 12 12 12 12 12 11 11 10 10 11 11 12 13 13 13 12 11 11 12 12
5 5 7 9 8 7 7 9 11 10 8 9 9 7 8 7 7 8 7 7 9 8 8 8 3 3 1 3 6 8 8 11 10 10 10 10 12 13 13 14 14 14 14 14 13 13 14 18 20 19 18 18 17 15 17 21 20 17 16 15 13 14 14 14 14 13 11 11 12 12 11 11 11 11 11 11 11 12 13 13 13 13 12 10 10 11
6 5 7 8 8 10 12 15 12 3 3 6 9 9 10 9 8 7 6 7 9 9 8 7 2 3 2 2 6 8 9 11 9 9 11 10 11 12 13 15 15 13 13 14 13 12 15 18 19 17 17 18 15 14 18 20 18 17 16 14 15 16 15 14 13 12 11 12 13 12 12 11 11 12 11 11 11 11 12 12 12 12 12 10 10 10
6 5 6 6 7 7 8 10 9 4 5 6 7 8 10 13 14 12 8 7 8 10 11 7 1 4 2 2 6 9 9 9 8 9 11 11 11 12 12 13 12 11 13 14 13 12 13 14 15 15 16 17 15 16 18 18 18 16 14 14 15 14 13 12 12 13 12 12 12 12 12 12 11 12 11 10 10 9 10 11 9 10 11 10 10 10
3 4 5 5 6 7 6 5 5 4 4 6 7 7 8 12 14 12 9 8 7 8 9 3 5 6 4 5 8 9 9 9 9 9 11 11 11 12 12 12 11 10 12 15 14 11 10 11 13 15 15 16 17 18 16 17 16 14 13 13 14 13 12 11 12 13 12 11 10 11 11 12 12 11 10 10 10 9 9 9 8 9 9 7 8 9
5 5 5 6 8 8 7 6 6 8 9 10 9 7 9 11 13 10 8 7 7 6 4 6 12 11 9 10 9 9 10 10 10 11 11 10 11 12 12 11 12 11 12 14 14 12 11 11 13 15 15 15 17 17 16 16 15 14 14 15 15 13 11 11 12 12 12 11 9 9 10 11 11 10 9 9 9 9 9 8 8 9 8 7 8 8
5 8 8 10 11 11 11 10 11 12 11 10 14 15 14 11 10 10 8 8 9 5 1 8 15 13 10 11 10 10 11 10 10 11 11 10 11 12 12 12 14 14 13 14 14 14 14 12 12 14 16 16 17 17 16 15 14 14 15 17 16 12 11 13 12 11 12 10 8 9 10 10 9 9 8 8 8 9 8 7 7 8 7 6 8 8
6 8 10 13 13 12 13 13 15 15 11 8 11 14 15 12 9 8 9 11 7 4 6 7 13 13 11 12 12 12 12 11 10 10 11 11 12 13 13 13 15 15 15 15 14 14 14 13 12 13 16 17 17 17 16 15 13 15 17 18 15 12 12 13 11 10 11 9 8 10 10 10 11 9 7 7 8 8 7 6 6 6 6 5 5 6
5 7 10 14 14 14 15 15 16 15 11 8 10 12 11 8 7 10 14 15 12 11 10 10 12 11 9 11 12 13 12 11 10 11 11 12 12 13 13 13 14 14 15 15 14 14 14 14 15 16 17 17 17 17 16 13 14 16 17 17 13 12 14 12 10 10 10 8 9 9 8 10 12 10 7 6 7 6 6 6 5 4 4 4 3 4
5 6 9 11 11 12 16 16 12 8 8 12 13 10 6 4 5 4 7 11 11 7 6 9 10 8 7 9 11 13 13 12 11 12 12 11 12 13 13 13 14 13 14 14 14 14 14 15 16 17 17 16 17 17 16 15 16 16 17 16 13 12 12 10 10 11 9 8 10 8 7 8 10 10 8 6 5 5 5 5 4 2 2 3 4 4
6 6 8 9 8 8 13 16 9 3 7 13 14 9 7 8 7 1 5 9 8 4 3 5 5 5 6 9 12 13 13 14 14 13 11 10 11 13 13 13 13 13 14 15 15 16 15 14 15 17 18 18 18 18 17 16 17 16 17 16 13 11 11 9 9 11 10 11 10 6 6 7 8 9 8 5 5 5 3 3 2 1 0 2 4 3
6 6 7 7 7 7 8 10 11 8 7 8 8 9 8 9 7 7 12 11 6 2 1 1 1 4 8 10 12 13 13 13 13 12 11 11 12 13 13 12 13 13 14 15 15 16 15 15 16 18 20 20 19 18 17 17 17 17 16 15 13 12 12 10 10 10 11 12 9 7 7 8 7 7 7 6 5 4 3 3 2 2 2 0 2 1
6 7 7 5 5 6 5 6 8 7 4 3 5 9 10 11 13 14 13 12 9 5 3 3 2 7 11 11 11 12 12 12 11 11 11 11 11 12 12 12 13 13 14 15 16 15 14 16 19 21 21 21 20 19 18 17 17 17 16 14 12 11 11 11 11 11 11 11 9 8 8 8 7 7 7 7 6 4 3 3 4 4 2 1 1 3
8 7 6 5 5 6 5 6 7 4 1 4 4 4 8 12 17 15 11 12 10 6 5 3 3 5 4 5 9 10 9 10 11 11 11 12 11 11 12 12 13 14 14 15 15 14 15 18 21 22 21 21 21 20 19 18 18 17 16 14 13 11 10 11 11 11 11 11 9 8 8 7 6 6 6 5 5 5 5 4 4 4 3 4 5 4
7 5 4 4 5 6 5 6 4 1 2 8 6 3 4 7 13 10 5 5 4 5 4 2 6 8 9 8 1 8 9 9 9 8 9 11 11 11 12 12 13 13 13 14 15 15 17 20 22 22 21 21 21 20 20 20 19 18 15 13 13 13 11 11 11 10 11 11 10 9 8 7 6 5 5 5 4 4 5 3 3 4 5 6 7 6
6 6 4 2 3 5 6 6 2 1 5 8 3 4 4 4 8 6 2 2 6 8 5 6 6 9 10 7 9 4 11 9 7 6 8 11 11 11 12 12 13 14 14 16 18 18 18 20 21 21 21 21 21 20 20 19 18 18 16 13 14 13 11 11 11 10 10 11 10 9 8 7 6 6 5 4 4 4 4 3 3 4 5 6 7 7
5 4 4 3 2 3 6 7 4 3 6 5 5 4 3 3 10 9 3 4 7 6 6 10 8 10 12 4 9 7 11 8 6 7 8 10 11 11 13 14 15 17 18 18 19 20 21 21 21 21 21 20 20 21 21 20 18 17 16 14 14 13 11 11 11 9 8 9 10 9 8 8 7 6 5 5 5 4 4 4 3 4 5 6 7 8
9 6 4 4 4 3 6 7 6 4 4 4 6 6 1 4 8 7 2 1 5 5 7 10 11 11 13 14 13 11 9 6 6 8 10 12 12 12 13 14 16 19 20 19 20 21 22 22 22 22 22 21 19 19 19 18 16 15 14 13 12 12 11 11 11 10 10 10 9 9 9 8 7 6 6 6 6 5 5 4 2 3 6 6 8 10
10 7 7 7 6 7 7 7 5 2 4 7 5 3 3 3 3 1 2 2 3 7 8 9 10 7 10 14 15 11 6 4 2 9 13 14 13 13 14 14 16 19 20 20 21 22 22 22 23 22 21 20 19 18 18 17 15 14 14 13 12 11 11 12 13 12 10 9 9 9 9 8 7 6 6 6 5 5 4 2 2 5 6 7 9 10
8 6 7 8 7 7 7 7 5 1 6 7 4 6 6 3 1 2 2 4 2 4 7 10 10 8 9 11 10 7 3 1 4 12 15 14 14 15 16 18 19 20 20 20 22 23 22 22 22 21 20 19 19 19 18 16 14 13 13 14 13 11 10 11 13 13 11 10 10 10 10 9 8 8 7 5 5 6 5 4 6 7 7 7 8 8
5 5 5 6 7 6 5 7 6 1 8 14 10 10 10 6 1 1 3 3 4 5 4 7 9 9 11 11 8 5 6 8 11 15 15 14 15 14 16 19 20 19 20 21 23 23 22 21 20 20 20 19 19 18 17 16 15 13 12 13 12 11 10 11 11 12 12 12 12 11 10 9 8 7 6 6 7 7 7 7 8 8 7 7 7 8
2 3 5 4 4 4 3 5 4 1 6 15 12 9 9 5 1 3 3 2 4 1 1 4 4 5 8 8 8 10 12 12 13 14 13 13 15 14 16 18 19 19 21 22 22 22 21 20 20 20 20 19 18 17 16 15 14 12 11 11 10 10 12 12 10 10 10 10 10 9 8 7 7 7 7 9 9 8 8 7 8 10 10 7 7 8
4 3 4 1 2 3 2 2 1 2 5 8 6 6 4 3 3 3 2 3 5 4 3 4 2 6 8 7 8 12 12 11 13 15 14 13 14 14 16 17 19 21 22 22 22 22 20 19 19 20 19 18 19 18 16 15 13 12 12 12 11 11 12 11 11 12 11 9 9 9 8 8 8 8 9 9 9 8 8 9 9 12 11 8 8 10
3 3 3 2 3 3 2 3 3 3 4 4 1 4 3 4 6 5 4 3 3 4 6 5 5 8 8 6 9 11 10 11 13 13 13 13 14 15 15 16 19 21 21 20 21 21 20 20 20 19 19 19 19 17 15 14 13 13 12 13 12 12 12 11 11 12 11 9 9 9 9 8 8 8 8 9 9 9 10 11 11 11 11 9 9 11
2 3 1 2 3 3 3 4 3 1 1 3 1 3 2 4 7 5 4 3 2 3 4 4 6 7 7 7 8 8 9 12 13 13 13 13 13 14 15 16 19 20 20 20 20 20 20 20 21 20 19 19 18 16 14 14 14 13 13 13 13 12 12 12 11 11 10 10 9 8 8 8 8 9 10 11 11 11 12 12 12 12 12 12 11 11
2 3 1 2 2 2 1 2 0 2 1 3 2 1 1 0 3 3 3 3 3 3 4 3 4 7 8 8 7 7 10 12 13 12 12 13 13 13 14 15 17 19 20 20 21 21 20 20 21 21 19 18 16 15 14 14 15 15 14 14 14 13 13 13 12 12 11 11 10 9 8 9 10 11 12 13 12 12 12 12 12 14 15 15 12 10
3 3 3 2 1 1 2 1 1 2 4 7 7 4 3 4 7 8 7 6 5 3 5 6 5 6 7 6 5 7 9 11 11 11 12 12 12 12 14 15 17 17 19 20 21 20 18 19 19 18 19 18 16 15 15 15 15 15 14 14 14 14 14 14 14 13 12 11 11 11 11 12 13 13 14 13 13 12 11 11 12 15 15 13 11 9
3 3 3 4 4 2 1 1 2 5 6 5 6 6 5 5 7 7 7 8 9 7 3 6 6 4 4 5 5 6 9 10 11 12 12 12 11 12 14 16 17 17 18 20 20 19 16 17 17 17 18 18 16 15 15 16 15 15 15 15 16 16 15 14 14 13 11 11 11 11 13 13 13 14 14 12 11 11 11 12 13 14 11 7 7 8
5 3 2 4 5 2 1 2 2 3 2 2 2 4 5 7 8 6 5 6 6 6 3 2 5 3 4 7 8 9 9 11 11 12 12 12 12 15 18 18 16 17 18 19 18 16 15 19 20 19 18 17 16 15 16 16 15 15 15 15 16 18 16 13 12 11 10 10 10 11 13 15 13 13 15 13 10 9 10 11 13 13 11 8 8 8
3 2 2 3 2 2 5 4 3 4 1 1 2 3 4 7 9 6 2 3 7 4 5 3 4 6 6 8 11 11 10 11 13 14 12 11 14 19 20 19 18 18 18 17 15 14 15 18 20 19 18 17 16 16 16 16 15 16 16 15 16 18 16 13 12 11 12 11 10 10 11 11 8 7 11 11 9 8 9 10 12 13 12 10 10 10
Wind_Direction
233 244 251 245 247 258 260 263 262 209 202 228 244 251 268 289 270 154 175 204 184 196 220 175 152 101 90 244 215 178 176 145 124 154 191 238 245 204 205 214 191 197 176 144 146 141 136 138 131 128 125 125 127 127 130 131 132 133 132 132 128 125 126 123 114 105 101 100 96 93 93 89 81 83 85 78 73 69 65 57 49 42 34 32 31 24
245 241 244 249 251 249 260 273 276 255 224 230 251 269 278 272 294 269 196 200 180 252 288 113 120 160 146 179 217 192 183 159 142 176 200 211 232 203 198 210 193 191 167 141 137 127 121 123 125 126 125 127 130 131 136 135 133 135 133 135 134 129 125 113 103 100 94 86 90 91 85 87 82 77 80 81 78 71 70 65 54 45 37 30 28 24
248 251 246 245 246 241 247 267 277 274 265 266 269 272 274 266 285 281 258 13 294 272 358 118 136 183 160 176 213 196 186 170 154 181 195 207 241 207 192 205 192 182 156 121 105 106 114 121 126 130 133 136 136 135 138 138 137 137 137 136 132 127 121 112 104 101 93 82 83 80 70 74 79 79 87 95 91 77 68 61 54 48 41 33 29 26
238 246 249 249 257 259 251 245 260 274 275 275 277 273 273 272 279 276 278 283 248 188 56 100 137 173 165 179 207 190 179 166 156 176 181 193 250 242 208 202 192 181 137 94 65 63 108 131 143 147 148 148 148 145 142 143 141 141 140 133 127 125 118 107 100 97 93 84 80 76 69 70 84 92 96 92 72 63 58 52 49 48 42 36 34 29
248 247 247 248 252 254 251 241 244 259 265 265 265 268 273 276 280 286 291 282 267 100 81 61 286 222 182 184 202 189 168 143 139 167 186 192 225 247 225 205 195 163 104 87 82 76 181 171 169 165 159 155 153 148 141 141 143 141 137 130 127 124 115 106 100 96 95 90 86 84 80 79 97 90 69 51 43 44 45 44 43 44 41 38 35 32
249 253 253 254 250 244 242 239 239 245 250 258 262 268 275 281 282 277 280 284 284 307 114 190 265 285 172 192 234 177 129 112 149 189 209 200 206 231 222 204 184 107 86 104 149 195 204 187 173 162 158 155 149 141 134 134 138 137 135 132 128 122 116 109 102 98 92 88 83 82 84 79 84 82 67 53 46 39 40 44 41 35 32 32 37 35
248 251 252 252 258 264 264 261 264 274 275 261 266 274 277 282 287 282 280 281 284 285 171 197 254 332 44 342 321 74 116 147 202 206 216 206 200 216 216 199 121 85 92 143 177 197 195 169 156 151 151 149 138 134 135 136 134 131 131 130 124 118 115 109 100 96 88 81 72 67 70 64 69 79 74 69 66 49 42 46 39 28 19 18 32 31
238 247 249 245 251 265 271 264 259 265 268 269 276 279 281 279 275 278 279 269 284 296 204 188 165 62 89 311 290 142 135 168 197 205 214 209 201 208 209 135 91 99 141 168 182 193 163 124 151 154 155 151 135 131 136 138 132 126 124 121 117 111 107 104 95 88 81 78 73 72 71 65 70 75 65 68 68 49 37 40 41 39 24 11 23 29
234 238 245 245 246 248 249 251 251 252 254 255 254 255 271 279 278 286 296 288 291 297 264 172 112 131 187 223 228 170 150 170 191 208 216 213 204 199 188 120 110 140 169 163 179 180 152 160 170 160 154 148 139 133 133 132 128 122 117 112 109 105 101 98 90 84 80 77 72 74 75 69 71 65 54 62 59 46 38 34 39 43 28 8 16 28
249 243 242 243 246 249 254 258 261 262 263 268 268 265 266 269 272 274 274 277 273 272 274 237 197 252 231 190 209 168 150 166 185 209 222 222 206 173 158 135 132 156 156 152 179 163 153 170 176 160 139 135 136 132 131 131 127 121 116 112 109 105 101 96 91 87 82 80 75 72 70 60 59 58 52 59 58 53 46 33 36 37 23 11 15 23
255 265 259 247 254 266 269 258 250 253 256 269 282 285 270 262 268 273 271 281 272 257 273 273 265 278 283 167 242 135 154 177 184 203 213 225 216 164 158 151 139 142 139 148 164 153 165 176 173 145 120 126 136 134 134 134 129 121 115 113 108 103 101 96 94 90 83 81 79 73 68 59 57 59 51 54 56 51 43 39 46 38 21 18 18 20
242 255 260 251 255 277 284 270 256 260 257 255 261 262 263 264 265 272 273 268 268 265 269 271 278 285 277 311 353 85 184 196 185 201 200 208 209 176 175 162 134 131 137 144 151 159 175 173 159 134 118 128 136 134 137 135 128 118 111 110 106 103 102 97 92 89 82 80 78 74 74 68 62 60 47 46 51 47 40 39 44 37 25 27 25 23
234 234 245 248 237 242 262 268 264 269 265 255 258 263 270 277 261 256 258 255 259 269 275 284 286 283 252 134 151 165 243 231 179 211 202 192 186 170 176 155 124 132 140 143 155 161 165 161 150 135 128 133 132 130 131 128 122 114 110 109 107 103 100 93 87 83 80 76 73 70 74 73 67 63 52 46 49 47 42 41 43 34 28 32 29 25
236 223 228 238 235 217 224 243 246 247 252 245 246 252 253 264 266 261 260 262 265 269 287 294 276 263 25 65 136 151 224 260 141 202 185 173 169 161 163 140 120 138 144 142 155 156 156 156 144 136 136 136 132 127 123 121 120 116 113 110 106 101 95 90 86 83 79 74 71 68 70 69 68 68 61 54 55 53 46 47 50 40 30 36 35 28
241 235 218 218 218 204 205 220 240 252 256 246 237 235 237 248 263 271 271 269 270 266 266 267 257 243 51 102 135 101 84 33 144 146 137 151 156 149 146 135 127 139 140 135 146 151 150 145 139 138 141 140 137 133 129 129 130 128 123 115 108 104 101 100 96 90 86 82 79 78 77 74 75 77 76 71 67 62 52 47 53 47 36 38 37 31
250 266 245 210 200 209 210 207 217 243 259 254 247 242 234 234 241 259 271 273 277 281 272 263 259 100 133 163 148 126 144 174 162 142 130 131 136 137 137 133 130 140 141 134 142 150 142 138 140 141 140 140 139 136 136 138 138 136 132 125 120 117 116 112 103 96 92 90 87 84 81 80 82 83 83 79 73 70 61 50 52 51 45 44 39 29
248 268 267 186 185 225 245 215 194 207 245 257 249 251 253 254 252 252 258 260 263 267 265 268 272 120 140 154 140 149 157 148 137 139 132 126 132 138 135 129 133 143 140 131 141 148 137 137 141 141 140 142 142 141 142 142 138 135 133 129 125 122 120 113 106 102 99 96 91 83 76 75 76 75 74 73 71 72 68 59 55 53 50 49 41 29
270 281 278 228 204 209 221 273 230 207 228 252 244 249 257 258 262 269 272 268 264 263 252 259 271 130 135 162 180 160 133 116 128 139 132 134 143 140 126 124 133 142 138 132 138 139 136 140 143 141 142 143 145 144 140 138 137 134 132 129 127 125 121 114 108 104 101 95 88 82 78 76 76 77 78 78 74 70 68 65 62 61 57 53 46 37
291 291 281 263 230 192 176 213 251 228 226 242 260 269 261 256 261 262 266 267 269 280 291 291 295 85 121 152 168 157 128 121 132 137 141 149 147 131 122 127 136 142 141 135 132 131 136 140 141 141 143 143 145 142 137 142 142 134 130 129 126 122 117 112 105 99 97 92 86 82 80 80 80 83 87 86 81 75 72 68 65 65 62 54 54 51
264 273 279 246 169 213 191 185 236 242 224 224 242 263 262 264 278 280 276 275 270 270 271 278 282 95 95 137 162 155 131 131 141 147 154 148 134 127 127 133 140 143 136 124 125 132 135 138 140 142 145 144 140 140 146 148 139 129 129 130 128 125 120 112 104 98 96 95 92 87 84 83 81 80 82 83 82 79 74 68 67 71 64 49 55 60
238 243 273 255 185 222 228 191 221 248 242 224 219 235 246 252 265 273 272 276 284 282 273 276 271 113 64 347 147 141 139 147 156 156 150 139 133 131 132 139 145 137 125 119 129 135 133 139 143 141 141 139 138 147 152 138 127 126 129 133 136 134 124 114 108 106 103 100 97 92 89 85 82 80 79 83 86 83 76 69 67 72 68 55 57 62
239 233 263 268 235 215 216 216 226 228 238 245 222 217 230 233 238 251 259 263 269 275 276 280 279 114 318 305 123 133 149 155 154 148 140 136 134 133 136 141 139 130 127 131 135 134 134 141 141 136 137 138 144 157 148 127 125 130 134 142 146 137 125 119 113 107 105 102 98 94 91 90 90 91 85 83 84 83 81 75 68 70 70 63 60 59
234 247 264 273 275 273 266 265 253 219 224 271 277 269 267 251 232 232 242 254 255 253 256 264 264 106 240 251 132 132 142 139 138 139 137 135 132 133 136 134 131 132 137 139 137 136 138 139 137 134 134 140 153 158 138 128 130 135 144 151 140 123 118 114 109 108 113 113 106 99 95 92 93 96 91 83 78 77 80 80 77 77 74 68 68 65
197 231 259 270 288 298 298 296 292 216 181 280 284 282 281 273 265 261 254 258 265 262 258 262 255 121 159 165 117 117 118 117 124 136 138 138 134 128 126 130 136 141 140 135 132 131 133 134 136 136 137 146 157 148 132 131 136 145 156 149 127 114 109 108 112 117 117 112 106 100 97 95 95 95 92 86 81 81 83 83 84 85 80 73 74 72
185 206 231 251 272 272 266 277 278 214 193 240 250 257 271 272 275 281 272 252 255 257 256 267 1 94 99 89 105 111 112 117 132 142 138 139 136 125 123 133 141 140 135 129 123 122 128 133 137 139 145 152 148 135 131 136 145 158 161 144 130 120 116 124 127 117 104 98 98 99 99 98 95 93 93 92 89 88 90 89 87 87 87 88 85 73
241 209 196 227 264 259 246 259 280 279 265 253 229 223 251 264 266 274 277 264 256 261 269 285 97 118 139 145 134 125 126 134 142 140 134 140 141 130 130 141 141 134 128 126 124 123 126 131 134 142 151 148 135 131 138 145 155 166 159 141 133 128 130 134 126 117 113 110 111 115 114 110 105 102 104 104 99 93 91 89 79 72 73 77 81 77
294 272 238 234 244 259 282 300 295 287 291 298 290 262 254 254 249 250 263 272 274 285 321 88 118 140 153 152 147 139 138 144 144 139 137 146 147 138 137 143 140 133 125 127 133 134 134 137 141 150 153 142 134 139 148 156 163 163 152 138 131 132 134 124 119 122 123 122 130 130 119 112 109 108 105 102 103 99 92 88 79 75 65 39 36 52
283 275 270 259 251 260 278 281 267 247 238 264 282 281 278 271 256 246 244 259 269 277 344 114 128 141 153 153 154 150 145 148 152 148 146 152 149 142 144 146 143 140 133 132 140 143 144 145 147 152 150 141 141 146 153 163 162 148 137 129 127 132 128 119 127 134 125 125 131 116 106 107 106 104 103 105 108 102 94 88 79 77 73 47 33 33
268 267 267 262 256 255 252 252 260 259 247 244 263 280 294 306 315 319 321 316 319 74 105 132 136 139 153 159 157 153 148 151 158 152 146 151 148 144 148 149 148 146 141 140 145 147 146 145 147 151 148 145 148 153 160 166 153 133 125 124 129 134 128 128 140 138 129 132 122 104 107 120 118 114 115 118 115 108 105 104 91 79 77 67 42 16
244 261 266 270 270 264 254 242 240 255 273 273 260 265 276 298 343 6 12 16 35 76 101 124 130 132 148 158 152 146 145 149 154 150 149 154 153 154 156 153 152 153 149 147 150 151 149 148 151 152 148 149 156 160 163 158 140 130 124 125 129 121 121 140 151 136 135 139 122 107 106 115 119 121 125 128 123 116 112 106 96 84 71 62 46 11
193 245 255 268 279 281 281 269 239 238 284 281 271 268 275 325 357 12 36 53 64 68 87 114 123 126 139 146 140 137 141 145 147 148 152 158 161 164 164 158 156 157 155 154 153 151 149 146 150 154 152 156 162 161 156 142 134 131 125 126 131 122 127 156 156 137 136 125 113 114 116 115 119 123 130 138 127 115 109 102 98 87 50 48 68 53
176 244 253 254 263 275 287 289 287 297 283 277 289 318 334 319 310 312 70 67 80 96 102 113 125 128 132 134 131 134 142 148 151 153 156 162 168 170 168 163 160 159 158 157 154 150 147 147 153 157 158 161 162 157 148 137 135 135 129 132 145 143 145 156 144 134 134 120 117 140 147 129 123 125 134 141 126 122 131 125 126 159 52 41 59 50
190 232 253 256 264 268 284 309 325 316 272 269 308 333 328 316 332 48 65 58 53 89 136 9 28 132 138 136 134 141 149 153 158 163 165 171 176 174 169 163 161 163 160 157 154 151 149 153 157 159 161 162 158 153 149 145 142 140 138 146 156 151 149 151 143 142 138 130 142 166 149 130 134 142 144 144 142 157 172 162 200 245 252 280 41 351
241 239 256 263 264 267 279 310 307 293 287 307 323 332 347 18 43 49 46 38 26 4 335 340 27 138 147 149 148 151 155 157 163 169 171 176 180 175 169 163 160 164 162 156 153 151 152 159 161 160 160 159 155 153 153 150 144 140 144 154 158 152 151 150 150 152 146 144 161 168 143 139 156 153 147 155 163 177 197 203 227 253 274 292 271 262
255 245 256 267 265 267 272 271 261 255 299 282 283 344 13 48 67 62 32 22 23 354 313 336 66 96 118 146 147 143 149 156 160 168 173 177 180 176 168 162 160 164 164 157 152 154 160 164 162 160 159 156 154 154 151 146 144 146 153 159 155 153 156 152 153 160 159 159 167 165 151 156 165 153 155 173 177 186 210 224 243 280 327 330 299 276
293 286 269 269 271 269 265 261 267 346 285 273 289 17 39 68 79 74 28 353 326 273 259 87 73 54 25 355 14 134 140 150 151 163 176 174 177 176 166 160 161 163 163 156 152 157 164 163 160 159 158 154 153 153 149 149 151 152 157 160 153 153 160 159 162 171 170 166 167 165 162 166 174 168 165 177 191 208 221 230 269 297 311 309 303 304
302 309 324 325 299 294 281 264 269 330 260 258 302 16 0 81 104 104 95 235 247 244 192 130 102 88 72 346 299 164 134 138 146 166 179 173 174 175 163 157 161 160 157 155 155 160 164 161 155 154 153 150 152 152 150 154 159 156 157 158 153 156 165 165 169 178 176 171 171 172 172 174 183 185 172 182 213 230 241 248 263 280 285 286 292 299
237 269 320 331 337 326 301 278 259 249 260 241 136 111 3 84 127 136 144 178 203 215 159 134 129 119 119 188 247 178 142 154 170 173 179 174 174 172 158 154 161 160 156 157 158 161 163 159 152 151 150 149 151 153 154 160 162 155 154 156 153 161 170 167 168 178 182 181 178 177 180 183 189 192 188 201 217 227 241 244 247 267 275 277 281 283
222 217 240 260 256 262 274 279 272 261 310 359 99 129 89 78 120 145 210 190 143 148 148 141 143 150 159 176 185 165 159 187 184 172 178 176 171 167 157 157 162 160 157 157 159 161 160 155 150 151 151 149 151 155 159 163 159 152 155 159 158 165 173 170 169 177 186 191 182 177 185 191 192 202 209 212 216 228 238 229 228 267 273 277 282 285
225 217 221 233 240 238 242 265 280 290 25 24 41 52 28 65 101 142 269 329 97 138 150 139 136 164 186 174 164 163 187 252 198 164 172 174 166 157 154 157 158 156 157 158 158 158 155 150 151 155 155 153 154 156 159 161 158 158 163 161 160 174 183 177 170 172 181 186 174 173 187 191 193 210 219 215 222 244 247 229 240 261 266 276 285 294
232 229 233 240 250 247 242 255 260 84 38 14 18 23 2 325 298 347 325 322 12 108 125 126 136 177 199 177 163 170 203 309 133 149 161 169 163 154 153 154 154 156 158 156 154 154 152 151 156 159 157 157 158 157 156 157 161 169 168 160 165 182 181 165 160 164 173 174 169 173 183 186 195 210 213 217 242 259 262 266 267 262 258 266 279 296
252 236 241 252 265 266 259 266 257 101 5 339 351 33 15 348 326 220 271 315 28 54 92 131 151 179 189 179 166 136 110 113 131 145 157 163 159 156 154 152 153 157 155 149 149 152 154 156 161 159 156 159 163 161 156 157 167 177 169 162 173 179 162 151 157 165 170 171 172 179 181 182 196 207 206 218 237 247 252 262 274 279 277 280 290 300
315 263 252 261 296 314 305 298 296 98 327 322 341 34 29 15 125 219 242 102 88 79 122 117 137 184 195 184 151 118 116 129 138 143 152 154 155 158 155 151 154 155 148 146 151 156 158 161 163 161 159 159 160 159 159 165 173 173 164 166 175 164 150 154 162 165 170 173 173 176 176 179 195 207 213 221 227 239 254 262 275 283 283 287 298 299
27 321 272 287 27 1 348 14 64 174 256 303 354 51 54 77 153 227 242 138 154 181 145 103 145 212 208 186 136 124 132 142 139 141 150 153 154 156 154 156 158 153 148 152 156 158 163 164 161 159 158 152 149 153 164 171 171 164 164 172 170 155 153 164 166 166 178 182 175 173 176 184 199 211 222 227 226 234 251 256 264 275 281 288 296 295
30 1 306 329 28 14 16 66 104 170 242 287 75 123 147 163 171 209 257 242 193 149 129 142 187 204 198 165 132 133 142 141 138 144 152 153 152 152 155 161 159 153 155 159 157 159 168 166 159 158 152 142 141 152 166 169 165 166 172 172 165 159 163 169 166 167 178 181 179 182 184 190 206 218 230 241 240 237 244 251 256 266 277 282 281 281
22 53 342 317 4 24 44 51 56 122 251 298 241 158 184 193 180 194 253 258 186 118 118 154 177 175 165 144 134 137 138 137 142 148 150 152 154 152 157 163 157 153 158 158 157 168 172 162 160 162 151 137 141 158 168 165 164 172 172 163 161 165 168 169 172 175 179 178 180 188 192 197 211 221 230 241 246 244 247 254 258 262 269 272 269 268
2 38 336 267 342 359 70 72 30 184 209 333 347 75 339 11 116 92 34 23 45 86 120 151 163 152 145 142 139 137 136 141 148 152 150 151 153 154 160 164 159 157 160 158 164 177 176 166 168 166 149 141 154 166 166 164 169 174 167 158 162 170 169 170 174 178 182 180 180 188 201 211 219 226 233 238 243 249 256 260 263 263 257 252 253 257
346 351 294 266 318 297 222 234 245 113 46 9 10 26 18 43 60 52 44 39 23 41 127 135 136 135 135 133 129 132 140 146 151 154 152 150 153 158 164 165 162 161 160 160 169 180 177 169 168 153 137 144 164 168 163 167 173 172 166 165 170 170 167 173 181 184 184 183 184 193 205 214 219 224 232 237 238 244 256 261 265 271 264 246 238 244
251 278 273 277 280 253 194 344 36 71 55 8 1 15 23 54 63 44 38 39 17 2 55 107 105 98 111 127 139 148 150 149 153 157 156 153 155 161 165 165 163 160 157 162 177 186 174 155 146 138 138 153 165 166 164 169 172 170 170 176 174 166 167 184 197 196 188 184 192 203 208 217 224 222 225 237 240 239 249 256 260 274 288 280 254 247
240 245 228 252 259 261 20 4 50 73 50 344 4 22 38 76 83 61 43 49 29 349 328 133 126 120 133 146 157 161 152 150 157 159 155 155 159 162 164 164 160 160 162 168 179 182 162 143 140 146 154 160 165 168 167 170 173 173 176 182 175 166 172 192 202 206 213 213 213 214 212 219 227 218 212 223 236 235 244 254 255 262 275 275 261 258
261 248 238 272 291 356 352 358 73 87 8 330 59 59 66 92 101 93 71 129 140 172 262 247 142 141 160 161 163 164 155 151 158 157 152 158 162 161 164 165 161 164 170 171 166 157 144 138 145 155 159 160 167 172 169 171 177 178 181 187 179 169 174 190 197 207 227 231 225 226 229 231 230 205 198 212 230 237 245 258 260 259 259 253 246 250